Regional Weather Roundup
Issued by NWS Cleveland, OH

Home | Current Version | Previous Version | Text Only | Print | Product List | Glossary On
Versions: 1 2 3 4 5 6 7 8 9 10 11 12 13 14 15 16 17 18 19 20 21 22 23 24 25 26 27 28 29 30 31 32 33 34 35 36 37 38 39 40 41 42 43 44 45 46 47 48 49 50
000
ASUS41 KCLE 291810
RWRCLE
OHIO REGIONAL WEATHER ROUNDUP
NATIONAL WEATHER SERVICE CLEVELAND, OH
200 PM EDT FRI AUG 29 2014

NOTE: "FAIR" INDICATES FEW OR NO CLOUDS BELOW 12,000 FEET WITH NO
SIGNIFICANT WEATHER AND/OR OBSTRUCTIONS TO VISIBILITY.

OHZ001>008-015>018-024>027-034-035-043-044-291900-
   NORTHWEST OHIO

CITY           SKY/WX    TMP DP  RH WIND       PRES   REMARKS
DEFIANCE       MOSUNNY   81  62  52 SE8       30.07F
FINDLAY        MOSUNNY   79  61  53 S12       30.09F
TOLEDO EXPRESS MOSUNNY   79  59  50 VRB6      30.09F
TOLEDO EXEC    PTSUNNY   80  58  46 SE9       30.10F
LIMA           SUNNY     80  63  55 SE10      30.09F
$$

OHZ009>014-019>023-028>033-038-089-291900-
   NORTHEAST OHIO

CITY           SKY/WX    TMP DP  RH WIND       PRES   REMARKS
CLE-HOPKINS    MOSUNNY   75  53  46 SE9       30.14F
CLE-LAKEFRONT  MOSUNNY   78  48  34 VRB7      30.11F
CUY CO. ARPT   MOSUNNY   77  48  36 SE9       30.14F
LORAIN-ELYRIA  SUNNY     79  53  40 S8        30.12F
ASHTABULA      SUNNY     73  50  44 SE9       30.16S
AKRON-CANTON   MOSUNNY   78  47  33 VRB7      30.14F
WOOSTER        SUNNY     76  55  48 SE6       30.14F
MANSFIELD      MOSUNNY   78  56  46 SE8       30.13F
YOUNGSTOWN     MOSUNNY   73  50  44 S6        30.15F
$$

OHZ042-051>053-060>062-070>072-077>081-291900-
  SOUTHWEST OHIO

CITY           SKY/WX    TMP DP  RH WIND       PRES   REMARKS
CINC-COVINGTON MOSUNNY   86  65  49 S8        30.06F
CINC-LUNKEN    MOSUNNY   85  65  51 SE9       30.06F
HAMILTON       SUNNY     86  65  49 E9        30.07F
DAYTON         MOSUNNY   82  63  52 S9        30.10F
WRIGHT-PAT AFB SUNNY     82  65  55 SE7       30.09F
DAYTON GENERAL SUNNY     81  65  58 SE7       30.08F
WILMINGTON     SUNNY     79  63  57 E9        30.10F
$$

OHZ036-037-039>041-045>050-054>059-063>069-073>076-082>088-291900-
  CENTRAL AND SOUTHEAST OHIO

CITY           SKY/WX    TMP DP  RH WIND       PRES   REMARKS
COLUMBUS       MOSUNNY   82  55  39 E6        30.10F
OSU AIRPORT    MOSUNNY   79  56  45 VRB3      30.11F
BOLTON FIELD   SUNNY     79  61  53 SE5       30.12F
RICKENBACK AFB MOSUNNY   82  52  35 CALM      30.10F
NEWARK         SUNNY     78  57  48 VRB5      30.12F
MARION         PTSUNNY   78  60  53 S10       30.12F
LANCASTER      SUNNY     82  58  43 E5        30.12F
ZANESVILLE     SUNNY     78  54  43 SE6       30.13F
NEW PHILLY     SUNNY     76  55  48 VRB6      30.14F
$$



USA.gov is the U.S. government's official web portal to all federal, state and local government web resources and services.